[[{"header":{"parameterUnit":"m.s-1","parameterCategory":1,"la1":30.2991,"la2":30.254,"lo1":-89.0895,"lo2":-89.0444,"dy":0.0017,"dx":0.0017,"nx":28,"ny":28,"refTime":"2023-03-20T15:00:00:Z","depth":0,"parameterNumber":2,"parameterNumberName":"U-component_of_WINDS"},"data":[0,0,0,0,0,0,0,0,0,0,0,0,0,0,0,0,0,0,0,0,0,0,0,0,0,0,0,0,0,0,0,0,0,0,0,0,0,0,0,0,0,0,0,0,0,0,0,0,0,0,0,0,0,0,0,0,0,0,-0.6101,-0.6102,0,-0.6214,-0.6215,-0.6216,-0.6184,-0.6182,-0.618,-0.6178,-0.6299,-0.6304,-0.6309,0,0,0,0,0,0,0,0,0,0,0,0,0,-0.5862,-0.5867,-0.6101,-0.6102,-0.6104,-0.6213,-0.6215,-0.6216,-0.6185,-0.6182,-0.6179,-0.6177,-0.6297,-0.6303,-0.631,0,0,0,0,0,0,0,0,0,0,0,0,0,-0.597,-0.5868,-0.6101,-0.6101,-0.6102,-0.6213,-0.6215,-0.6217,-0.6185,-0.6182,-0.6179,-0.6175,-0.6295,-0.6303,-0.631,-0.643,0,0,-0.6335,-0.6339,0,0,0,0,0,0,0,0,-0.5964,-0.5979,-0.6099,-0.6101,-0.6103,-0.6181,-0.6175,-0.6288,-0.6186,-0.6154,-0.6178,-0.6174,-0.6263,-0.6273,-0.6302,-0.6435,-0.644,-0.6336,-0.6341,-0.6344,-0.6346,0,0,0,0,0,0,0,-0.5956,-0.5974,-0.6146,-0.6101,-0.6103,-0.6097,-0.6108,-0.6196,-0.6227,-0.6157,-0.6154,-0.6168,-0.6263,-0.6294,-0.6305,-0.6442,-0.6336,-0.6343,-0.6348,-0.6351,-0.668,-0.6683,0,0,0,0,0,0,-0.5947,-0.5968,-0.6142,-0.6149,-0.6023,-0.6104,-0.6117,-0.616,-0.6226,-0.6232,-0.6171,-0.6166,-0.6282,-0.6295,-0.6309,-0.6454,-0.6344,-0.6352,-0.6356,-0.6676,-0.6681,-0.6685,0,0,0,0,0,0,-0.5942,-0.5963,-0.6137,-0.6058,-0.6079,-0.6112,-0.616,-0.6164,-0.6195,-0.6236,-0.6242,-0.6197,-0.628,-0.6298,-0.64,-0.6458,-0.6355,-0.6363,-0.6671,-0.6677,-0.6683,-0.6745,0,0,0,0,0,0,-0.5935,-0.5961,-0.6006,-0.6059,-0.6084,-0.6226,-0.6164,-0.6168,-0.6209,-0.6203,-0.6263,-0.6269,-0.6279,-0.6388,-0.6408,-0.6467,-0.6369,-0.6666,-0.6674,-0.6681,-0.6738,-0.6752,-0.6765,0,0,0,0,0,-0.5927,-0.602,-0.6009,-0.603,-0.614,-0.6229,-0.6243,-0.6251,-0.6213,-0.626,-0.6286,-0.6267,-0.6447,-0.6399,-0.6421,-0.6484,-0.6663,-0.6672,-0.668,-0.6732,-0.675,-0.6764,0,0,0,0,0,0,-0.5976,-0.6027,-0.6015,-0.6128,-0.6174,-0.6223,-0.6282,-0.6269,-0.6328,-0.6322,-0.633,-0.6343,-0.6448,-0.6475,-0.642,-0.6603,-0.655,-0.6563,-0.6582,-0.6599,-0.6612,-0.6605,-0.6376,0,0,0,0,0,-0.5999,-0.6065,-0.6107,-0.6203,-0.6226,-0.625,-0.6289,-0.629,-0.6339,-0.6359,-0.6393,-0.6443,-0.651,-0.6555,-0.662,-0.674,-0.6754,-0.6794,-0.6808,-0.6818,-0.6831,-0.6899,-0.6918,-0.6714,-0.6714,-0.6713,0,0,-0.605,-0.6086,-0.6128,-0.6213,-0.625,-0.632,-0.6267,-0.6343,-0.6396,-0.6372,-0.6471,-0.6496,-0.6552,-0.6664,-0.6716,-0.6691,-0.689,-0.6829,-0.6838,-0.6845,-0.691,-0.6929,-0.6946,-0.672,-0.6718,-0.6718,0,0,-0.6178,-0.621,-0.6294,-0.6331,-0.6385,-0.64,-0.642,-0.6471,-0.6487,-0.6585,-0.6569,-0.6631,-0.6747,-0.6788,-0.6825,-0.6965,-0.6952,-0.6986,-0.7057,-0.7122,-0.7139,-0.7153,-0.7206,-0.7225,-0.6998,-0.6998,-0.6998,0,-0.6235,-0.6338,-0.634,-0.6417,-0.6457,-0.6434,-0.6521,-0.6556,-0.663,-0.6658,-0.6628,-0.6773,-0.6809,-0.6931,-0.6965,-0.6994,-0.7019,-0.6982,-0.7136,-0.715,-0.7164,-0.7214,-0.7234,-0.7002,-0.7002,-0.7001,-0.7001,0,-0.6406,-0.6477,-0.6539,-0.6609,-0.6654,-0.6735,-0.6751,-0.6797,-0.6793,-0.6812,-0.6913,-0.6954,-0.7028,-0.7056,-0.7054,-0.7178,-0.7161,-0.7133,-0.7081,-0.7187,-0.7235,-0.7254,-0.7008,-0.7006,-0.7005,-0.7004,0,0,-0.6572,-0.6639,-0.6662,-0.6694,-0.6751,-0.6807,-0.6887,-0.6957,-0.6997,-0.7047,-0.7117,-0.7214,-0.7189,-0.723,-0.7232,-0.7288,-0.74,-0.7254,-0.7255,-0.7282,-0.7542,-0.7565,-0.7588,-0.7389,-0.7393,-0.7396,-0.7538,0,-0.6708,-0.6848,-0.6851,-0.6981,-0.7048,-0.7027,-0.7097,-0.7141,-0.7159,-0.722,-0.724,-0.7311,-0.727,-0.7294,-0.7349,-0.7375,-0.7453,-0.7364,-0.7457,-0.746,-0.7448,-0.7612,-0.7637,-0.777,-0.7557,-0.756,-0.7562,0,-0.6886,-0.694,-0.7076,-0.7123,-0.7151,-0.7214,-0.7278,-0.7335,-0.7384,-0.7394,-0.7438,-0.7431,-0.7515,-0.7456,-0.7573,-0.7512,-0.755,-0.7568,-0.7573,-0.7586,-0.7521,-0.7633,-0.7812,-0.7834,-0.7591,-0.7589,-0.7587,0,-0.6997,-0.7104,-0.7199,-0.7226,-0.7283,-0.7328,-0.7354,-0.7399,-0.744,-0.7496,-0.7523,-0.7588,-0.7625,-0.7676,-0.7688,-0.7643,-0.7805,-0.7747,-0.7818,-0.7818,-0.7856,-0.7855,-0.8049,-0.7874,-0.7874,-0.7873,-0.7873,0,-0.7151,-0.7236,-0.725,-0.731,-0.7404,-0.7406,-0.75,-0.7523,-0.7562,-0.7627,-0.7611,-0.7672,-0.7681,-0.7745,-0.7754,-0.7851,-0.7866,-0.7878,-0.788,-0.7882,-0.7881,-0.791,-0.7902,-0.7879,-0.7877,-0.7876,-0.7875,0,-0.7294,-0.7306,-0.7409,-0.7453,-0.7466,-0.7534,-0.7572,-0.763,-0.7644,-0.7726,-0.7745,-0.777,-0.7844,-0.7859,-0.7947,-0.7953,-0.8068,-0.8059,-0.8052,-0.8053,-0.8124,-0.8118,-0.8346,-0.8377,-0.8179,-0.8181,-0.8182,0,-0.7393,-0.7457,-0.7507,-0.7548,-0.7576,-0.7642,-0.7683,-0.7687,-0.7732,-0.7791,-0.7842,-0.7913,-0.7971,-0.809,-0.8117,-0.8184,-0.8179,-0.8254,-0.8189,-0.8189,-0.8184,-0.8182,-0.8189,-0.8268,-0.827,-0.8272,-0.8273,0,-0.7568,-0.7571,-0.7631,-0.7693,-0.7742,-0.7792,-0.7838,-0.7873,-0.7883,-0.7934,-0.8008,-0.8053,-0.8141,-0.8213,-0.8279,-0.8307,-0.8294,-0.8292,-0.8313,-0.8318,-0.8312,-0.8319,-0.809,-0.8289,-0.8287,-0.8286,-0.8285,-0.8284,-0.7695,-0.7752,-0.7796,-0.7863,-0.7897,-0.7941,-0.7997,-0.8018,-0.808,-0.8151,-0.8149,-0.8231,-0.8278,-0.8365,-0.8397,-0.8462,-0.8439,-0.8468,-0.8476,-0.8484,-0.8492,-0.8297,-0.8474,-0.8473,-0.8473,-0.8472,-0.8472,0,-0.7873,-0.7899,-0.796,-0.8026,-0.8079,-0.8056,-0.8106,-0.8153,-0.8225,-0.8268,-0.8324,-0.841,-0.8479,-0.851,-0.8579,-0.8625,-0.862,-0.8643,-0.8642,-0.8649,-0.8507,-0.8484,-0.8646,-0.8646,-0.8646,-0.8646,-0.8646,-0.8646,-0.7972,-0.8067,-0.8075,-0.8187,-0.8213,-0.8292,-0.8323,-0.8364,-0.8398,-0.8494,-0.8551,-0.8569,-0.8608,-0.8679,-0.8742,-0.8749,-0.8777,-0.8804,-0.8809,-0.8677,-0.8659,-0.8642,-0.8621,-0.8809,-0.8809,-0.8946,-0.8947,-0.8948]},{"header":{"parameterUnit":"m.s-1","parameterCategory":1,"la1":30.2991,"la2":30.254,"lo1":-89.0895,"lo2":-89.0444,"dy":0.0017,"dx":0.0017,"nx":28,"ny":28,"refTime":"2023-03-20T15:00:00:Z","depth":0,"parameterNumber":3,"parameterNumberName":"V-component_of_WINDS"},"data":[0,0,0,0,0,0,0,0,0,0,0,0,0,0,0,0,0,0,0,0,0,0,0,0,0,0,0,0,0,0,0,0,0,0,0,0,0,0,0,0,0,0,0,0,0,0,0,0,0,0,0,0,0,0,0,0,0,0,-6.6259,-6.626,0,-6.6386,-6.6388,-6.6389,-6.6268,-6.6263,-6.6259,-6.6254,-6.6379,-6.6386,-6.6394,0,0,0,0,0,0,0,0,0,0,0,0,0,-6.5905,-6.5912,-6.6259,-6.626,-6.6262,-6.6386,-6.6388,-6.6389,-6.6269,-6.6263,-6.6257,-6.6252,-6.6376,-6.6385,-6.6395,0,0,0,0,0,0,0,0,0,0,0,0,0,-6.6048,-6.5915,-6.6259,-6.6217,-6.6215,-6.6386,-6.6388,-6.639,-6.627,-6.6263,-6.6256,-6.6249,-6.6373,-6.6385,-6.6396,-6.6613,0,0,-6.6432,-6.6437,0,0,0,0,0,0,0,0,-6.604,-6.6061,-6.6222,-6.622,-6.6218,-6.6304,-6.6308,-6.6464,-6.6272,-6.6249,-6.6254,-6.6246,-6.6359,-6.6372,-6.6411,-6.6619,-6.6624,-6.6433,-6.644,-6.6445,-6.6448,0,0,0,0,0,0,0,-6.603,-6.6055,-6.6309,-6.6224,-6.6222,-6.619,-6.6202,-6.6338,-6.6343,-6.625,-6.6242,-6.6259,-6.6357,-6.64,-6.6413,-6.6626,-6.6433,-6.6443,-6.645,-6.6455,-6.7015,-6.7023,0,0,0,0,0,0,-6.6026,-6.6048,-6.6305,-6.6313,-6.611,-6.6202,-6.6216,-6.6284,-6.6341,-6.6343,-6.6265,-6.6253,-6.6384,-6.64,-6.6417,-6.6674,-6.6445,-6.6456,-6.6463,-6.7007,-6.7017,-6.7026,0,0,0,0,0,0,-6.6019,-6.605,-6.63,-6.6178,-6.6207,-6.6216,-6.6293,-6.629,-6.6333,-6.6352,-6.6352,-6.6309,-6.6379,-6.6401,-6.6565,-6.6677,-6.6461,-6.6472,-6.6998,-6.701,-6.7021,-6.719,0,0,0,0,0,0,-6.6009,-6.6048,-6.6132,-6.6181,-6.6215,-6.6448,-6.63,-6.6298,-6.6354,-6.634,-6.6393,-6.6395,-6.6375,-6.6548,-6.6577,-6.6689,-6.6481,-6.6988,-6.7004,-6.7018,-6.7175,-6.7206,-6.7234,0,0,0,0,0,-6.5997,-6.6174,-6.6137,-6.6169,-6.632,-6.6455,-6.6474,-6.6448,-6.6364,-6.6448,-6.6459,-6.6394,-6.666,-6.6566,-6.6597,-6.6715,-6.6981,-6.6999,-6.7016,-6.7162,-6.72,-6.7233,0,0,0,0,0,0,-6.6136,-6.6179,-6.6139,-6.6338,-6.6394,-6.6434,-6.6539,-6.649,-6.657,-6.6553,-6.6516,-6.6529,-6.6703,-6.6724,-6.6619,-6.6926,-6.6806,-6.6831,-6.6906,-6.6943,-6.6972,-6.6963,-6.6491,0,0,0,0,0,-6.6191,-6.6299,-6.6329,-6.6501,-6.6532,-6.6531,-6.6589,-6.6564,-6.662,-6.6643,-6.6666,-6.6721,-6.6817,-6.6881,-6.697,-6.7177,-6.7186,-6.7273,-6.7302,-6.7326,-6.7348,-6.7458,-6.7496,-6.7084,-6.7084,-6.7083,0,0,-6.6303,-6.634,-6.641,-6.653,-6.6571,-6.6681,-6.6552,-6.6674,-6.6755,-6.666,-6.6818,-6.6837,-6.6896,-6.7082,-6.7165,-6.7106,-6.7464,-6.7349,-6.7368,-6.7377,-6.748,-6.7519,-6.7554,-6.7096,-6.7093,-6.7092,0,0,-6.6564,-6.6604,-6.6751,-6.6795,-6.6858,-6.6856,-6.6892,-6.694,-6.695,-6.7107,-6.7038,-6.7133,-6.7299,-6.7343,-6.7388,-6.7665,-6.7607,-6.7695,-6.7849,-6.7956,-6.7989,-6.8017,-6.8116,-6.8152,-6.7717,-6.7717,-6.7717,0,-6.6696,-6.6862,-6.6832,-6.6961,-6.7015,-6.6936,-6.7083,-6.7126,-6.7215,-6.7253,-6.7185,-6.7392,-6.7426,-6.7621,-6.7689,-6.7728,-6.7766,-6.7689,-6.7987,-6.8015,-6.8041,-6.8135,-6.8172,-6.7727,-6.7726,-6.7725,-6.7724,0,-6.702,-6.7136,-6.7247,-6.7337,-6.7403,-6.754,-6.753,-6.76,-6.757,-6.7574,-6.7734,-6.7772,-6.7868,-6.7912,-6.7882,-6.8103,-6.8064,-6.7993,-6.7871,-6.8092,-6.8179,-6.8214,-6.7742,-6.7738,-6.7735,-6.7733,0,0,-6.7374,-6.7446,-6.7487,-6.7526,-6.759,-6.7678,-6.781,-6.7905,-6.7966,-6.8029,-6.8139,-6.8281,-6.8215,-6.8265,-6.824,-6.8334,-6.8551,-6.825,-6.8251,-6.8305,-6.8795,-6.8849,-6.8891,-6.8512,-6.8519,-6.8525,-6.879,0,-6.7637,-6.7871,-6.7847,-6.8068,-6.8174,-6.8099,-6.8214,-6.8265,-6.8272,-6.8361,-6.8368,-6.847,-6.8375,-6.8405,-6.8495,-6.8506,-6.8649,-6.8486,-6.8612,-6.8617,-6.8601,-6.8937,-6.8995,-6.9244,-6.8824,-6.883,-6.8834,0,-6.7977,-6.8054,-6.8286,-6.8333,-6.8376,-6.8481,-6.8565,-6.8652,-6.8707,-6.8705,-6.8762,-6.872,-6.8851,-6.8726,-6.8905,-6.8795,-6.8845,-6.8858,-6.8867,-6.8878,-6.874,-6.8957,-6.9322,-6.936,-6.8887,-6.8883,-6.8879,0,-6.8212,-6.8373,-6.8533,-6.8569,-6.8628,-6.8703,-6.873,-6.8778,-6.8836,-6.8909,-6.8946,-6.9033,-6.908,-6.9147,-6.9129,-6.904,-6.9312,-6.9186,-6.9313,-6.9314,-6.9374,-6.9371,-6.9753,-6.9406,-6.9406,-6.9405,-6.9404,0,-6.8509,-6.8654,-6.8639,-6.8738,-6.8897,-6.8867,-6.9025,-6.9042,-6.9085,-6.9184,-6.9123,-6.9217,-6.9187,-6.9278,-6.9264,-6.9414,-6.9435,-6.9437,-6.9431,-6.9443,-6.9443,-6.9475,-6.9457,-6.9415,-6.9412,-6.9411,-6.9409,0,-6.8799,-6.8795,-6.8964,-6.9006,-6.902,-6.9135,-6.917,-6.9261,-6.9263,-6.9389,-6.9417,-6.942,-6.9524,-6.9512,-6.9628,-6.9618,-6.9804,-6.9778,-6.9787,-6.9781,-6.9909,-6.9897,-7.0326,-7.038,-6.9998,-7.0002,-7.0005,0,-6.8989,-6.9099,-6.9153,-6.9216,-6.9249,-6.9351,-6.941,-6.9384,-6.9448,-6.9518,-6.9601,-6.97,-6.9778,-6.9947,-6.9958,-7.0046,-7.0021,-7.0166,-7.0034,-7.0042,-7.0024,-7.0018,-7.0028,-7.0192,-7.0196,-7.02,-7.0202,0,-6.9327,-6.932,-6.9409,-6.9498,-6.9571,-6.9639,-6.9701,-6.9755,-6.9735,-6.9809,-6.9916,-6.9977,-7.0095,-7.0194,-7.0277,-7.0302,-7.0249,-7.0244,-7.0278,-7.0291,-7.0291,-7.0293,-6.9858,-7.0234,-7.0231,-7.0228,-7.0227,-7.0226,-6.9573,-6.9667,-6.972,-6.9821,-6.9865,-6.9923,-7.0011,-7.0025,-7.0114,-7.0211,-7.0189,-7.0309,-7.0359,-7.0465,-7.0499,-7.0591,-7.0538,-7.0588,-7.06,-7.0613,-7.0628,-7.0277,-7.0606,-7.0605,-7.0604,-7.0603,-7.0603,0,-6.9908,-6.9938,-7.0031,-7.012,-7.0199,-7.0144,-7.0209,-7.0278,-7.0385,-7.0437,-7.0515,-7.0637,-7.0732,-7.0751,-7.0841,-7.0911,-7.0889,-7.0935,-7.093,-7.0937,-7.067,-7.0632,-7.0952,-7.0952,-7.0952,-7.0952,-7.0951,-7.0951,-7.0091,-7.0247,-7.0246,-7.0422,-7.045,-7.057,-7.0611,-7.0665,-7.0706,-7.0846,-7.0925,-7.0937,-7.0975,-7.1067,-7.1151,-7.1154,-7.1189,-7.1246,-7.1239,-7.099,-7.0955,-7.0922,-7.0886,-7.1254,-7.1254,-7.1498,-7.15,-7.1502]}]]